| time (UTC) | temp C | wind direction | speed KPH | gust KPH | rain 1hr cm | rain 24hr cm | rain mn cm | humidity % | barometer mb |
| 20260904195515 | 34 | 214 | 6.4 | 16.1 | 0.00 | 0.00 | 0.00 | 37 | 1015.8 |
| 20260904195031 | 35 | 240 | 6.4 | 16.1 | 0.00 | 0.00 | 0.00 | 37 | 1015.9 |
| 20260904194526 | 34 | 287 | 3.2 | 4.8 | 0.00 | 0.00 | 0.00 | 38 | 1015.8 |
| 20260904194025 | 34 | 287 | 1.6 | 6.4 | 0.00 | 0.00 | 0.00 | 38 | 1015.9 |
| 20260904193519 | 33 | 266 | 1.6 | 9.7 | 0.00 | 0.00 | 0.00 | 38 | 1016.0 |
| 20260904193013 | 34 | 244 | 3.2 | 9.7 | 0.00 | 0.00 | 0.00 | 39 | 1016.1 |
| 20260904192528 | 34 | 258 | 4.8 | 11.3 | 0.00 | 0.00 | 0.00 | 38 | 1016.2 |
| 20260904192024 | 34 | 260 | 3.2 | 11.3 | 0.00 | 0.00 | 0.00 | 39 | 1016.4 |
| 20260904191519 | 34 | 260 | 8.0 | 14.5 | 0.00 | 0.00 | 0.00 | 38 | 1016.6 |
| 20260904191014 | 35 | 265 | 6.4 | 14.5 | 0.00 | 0.00 | 0.00 | 40 | 1016.5 |
| 20260904190513 | 35 | 297 | 1.6 | 4.8 | 0.00 | 0.00 | 0.00 | 40 | 1016.5 |
| 20260904190040 | 33 | 297 | 1.6 | 8.0 | 0.00 | 0.00 | 0.00 | 41 | 1016.5 |
| 20260904185522 | 33 | 296 | 1.6 | 11.3 | 0.00 | 0.00 | 0.00 | 42 | 1016.7 |
| 20260904185017 | 34 | 284 | 3.2 | 11.3 | 0.00 | 0.00 | 0.00 | 40 | 1016.6 |
| 20260904184531 | 33 | 282 | 3.2 | 11.3 | 0.00 | 0.00 | 0.00 | 43 | 1016.8 |
| 20260904184027 | 33 | 291 | 4.8 | 8.0 | 0.00 | 0.00 | 0.00 | 43 | 1016.9 |
| 20260904183522 | 33 | 295 | 3.2 | 8.0 | 0.00 | 0.00 | 0.00 | 44 | 1016.9 |
| 20260904183017 | 32 | 151 | 1.6 | 8.0 | 0.00 | 0.00 | 0.00 | 46 | 1017.0 |
| 20260904182516 | 32 | 153 | 4.8 | 9.7 | 0.00 | 0.00 | 0.00 | 45 | 1017.2 |
| 20260904182031 | 32 | 219 | 4.8 | 17.7 | 0.00 | 0.00 | 0.00 | 43 | 1017.2 |
| 20260904181526 | 33 | 218 | 8.0 | 17.7 | 0.00 | 0.00 | 0.00 | 43 | 1017.2 |
| 20260904181021 | 33 | 61 | 3.2 | 11.3 | 0.00 | 0.00 | 0.00 | 44 | 1017.3 |
| 20260904180517 | 32 | 94 | 6.4 | 19.3 | 0.00 | 0.00 | 0.00 | 47 | 1017.3 |
| 20260904180045 | 31 | 90 | 6.4 | 19.3 | 0.00 | 0.00 | 0.00 | 50 | 1017.4 |
| 20260904175526 | 32 | 89 | 9.7 | 16.1 | 0.00 | 0.00 | 0.00 | 49 | 1017.4 |
| 20260904175025 | 31 | 90 | 1.6 | 12.9 | 0.00 | 0.00 | 0.00 | 50 | 1017.4 |
| 20260904174519 | 31 | 89 | 4.8 | 12.9 | 0.00 | 0.00 | 0.00 | 52 | 1017.5 |
| 20260904174015 | 31 | 91 | 3.2 | 11.3 | 0.00 | 0.00 | 0.00 | 50 | 1017.6 |
| 20260904173530 | 31 | 92 | 6.4 | 16.1 | 0.00 | 0.00 | 0.00 | 51 | 1017.6 |
| 20260904173027 | 31 | 96 | 6.4 | 16.1 | 0.00 | 0.00 | 0.00 | 52 | 1017.7 |
| 20260904172521 | 31 | 96 | 6.4 | 14.5 | 0.00 | 0.00 | 0.00 | 51 | 1017.6 |
| 20260904172016 | 30 | 113 | 4.8 | 14.5 | 0.00 | 0.00 | 0.00 | 51 | 1017.8 |
| 20260904171514 | 31 | 273 | 4.8 | 11.3 | 0.00 | 0.00 | 0.00 | 53 | 1017.7 |
| 20260904171029 | 31 | 193 | 3.2 | 8.0 | 0.00 | 0.00 | 0.00 | 52 | 1017.8 |
| 20260904170525 | 30 | 154 | 3.2 | 14.5 | 0.00 | 0.00 | 0.00 | 52 | 1018.0 |
| 20260904170032 | 30 | 126 | 6.4 | 14.5 | 0.00 | 0.00 | 0.00 | 52 | 1018.0 |
| 20260904165514 | 30 | 214 | 6.4 | 14.5 | 0.00 | 0.00 | 0.00 | 53 | 1018.0 |
| 20260904165030 | 31 | 220 | 3.2 | 14.5 | 0.00 | 0.00 | 0.00 | 53 | 1017.9 |
| 20260904164525 | 30 | 169 | 6.4 | 14.5 | 0.00 | 0.00 | 0.00 | 55 | 1017.8 |
| 20260904164020 | 30 | 213 | 6.4 | 14.5 | 0.00 | 0.00 | 0.00 | 56 | 1017.8 |
| 20260904163519 | 30 | 148 | 6.4 | 19.3 | 0.00 | 0.00 | 0.00 | 56 | 1017.8 |
| 20260904163014 | 29 | 133 | 9.7 | 19.3 | 0.00 | 0.00 | 0.00 | 56 | 1017.8 |
| 20260904162529 | 29 | 113 | 4.8 | 14.5 | 0.00 | 0.00 | 0.00 | 57 | 1017.8 |
| 20260904162024 | 29 | 91 | 8.0 | 14.5 | 0.00 | 0.00 | 0.00 | 58 | 1017.7 |
| 20260904161520 | 29 | 134 | 6.4 | 19.3 | 0.00 | 0.00 | 0.00 | 58 | 1017.8 |
| 20260904161016 | 29 | 119 | 8.0 | 19.3 | 0.00 | 0.00 | 0.00 | 58 | 1017.6 |
| 20260904160531 | 28 | 85 | 6.4 | 12.9 | 0.00 | 0.00 | 0.00 | 61 | 1017.7 |
| 20260904160044 | 28 | 77 | 6.4 | 14.5 | 0.00 | 0.00 | 0.00 | 62 | 1017.7 |
| 20260904155525 | 28 | 111 | 4.8 | 16.1 | 0.00 | 0.00 | 0.00 | 63 | 1017.6 |
| 20260904155021 | 28 | 126 | 8.0 | 16.1 | 0.00 | 0.00 | 0.00 | 63 | 1017.7 |
| 20260904154518 | 27 | 112 | 6.4 | 16.1 | 0.00 | 0.00 | 0.00 | 64 | 1017.6 |
| 20260904154013 | 27 | 102 | 6.4 | 14.5 | 0.00 | 0.00 | 0.00 | 65 | 1017.6 |
| 20260904153528 | 27 | 122 | 8.0 | 14.5 | 0.00 | 0.00 | 0.00 | 64 | 1017.5 |
| 20260904153024 | 27 | 108 | 4.8 | 14.5 | 0.00 | 0.00 | 0.00 | 66 | 1017.5 |
| 20260904152523 | 27 | 107 | 8.0 | 16.1 | 0.00 | 0.00 | 0.00 | 66 | 1017.5 |
| 20260904152017 | 27 | 127 | 9.7 | 17.7 | 0.00 | 0.00 | 0.00 | 65 | 1017.7 |
| 20260904151513 | 27 | 124 | 8.0 | 17.7 | 0.00 | 0.00 | 0.00 | 65 | 1017.6 |
| 20260904151030 | 27 | 101 | 8.0 | 17.7 | 0.00 | 0.00 | 0.00 | 65 | 1017.5 |
| 20260904150525 | 27 | 90 | 6.4 | 14.5 | 0.00 | 0.00 | 0.00 | 66 | 1017.5 |
| 20260904150032 | 27 | 121 | 4.8 | 14.5 | 0.00 | 0.00 | 0.00 | 66 | 1017.5 |
| 20260904145513 | 27 | 111 | 9.7 | 14.5 | 0.00 | 0.00 | 0.00 | 66 | 1017.5 |
| 20260904145014 | 26 | 119 | 8.0 | 16.1 | 0.00 | 0.00 | 0.00 | 67 | 1017.5 |
| 20260904144528 | 26 | 130 | 8.0 | 16.1 | 0.00 | 0.00 | 0.00 | 67 | 1017.5 |
| 20260904144023 | 26 | 117 | 8.0 | 14.5 | 0.00 | 0.00 | 0.00 | 67 | 1017.5 |
| 20260904143519 | 26 | 111 | 6.4 | 14.5 | 0.00 | 0.00 | 0.00 | 68 | 1017.4 |
| 20260904143014 | 26 | 110 | 8.0 | 14.5 | 0.00 | 0.00 | 0.00 | 68 | 1017.3 |
| 20260904142530 | 26 | 146 | 4.8 | 9.7 | 0.00 | 0.00 | 0.00 | 69 | 1017.3 |
| 20260904142026 | 26 | 131 | 6.4 | 9.7 | 0.00 | 0.00 | 0.00 | 68 | 1017.4 |
| 20260904141522 | 26 | 144 | 4.8 | 9.7 | 0.00 | 0.00 | 0.00 | 68 | 1017.3 |
| 20260904141022 | 26 | 136 | 4.8 | 9.7 | 0.00 | 0.00 | 0.00 | 69 | 1017.3 |
| 20260904140517 | 26 | 159 | 3.2 | 6.4 | 0.00 | 0.00 | 0.00 | 69 | 1017.2 |
| 20260904140045 | 26 | 159 | 3.2 | 8.0 | 0.00 | 0.00 | 0.00 | 70 | 1017.1 |
| 20260904135526 | 25 | 159 | 4.8 | 8.0 | 0.00 | 0.00 | 0.00 | 70 | 1017.1 |
| 20260904135021 | 25 | 159 | 3.2 | 8.0 | 0.00 | 0.00 | 0.00 | 71 | 1017.0 |
| 20260904134516 | 25 | 164 | 3.2 | 6.4 | 0.00 | 0.00 | 0.00 | 71 | 1016.9 |
| 20260904134031 | 25 | 164 | 3.2 | 6.4 | 0.00 | 0.00 | 0.00 | 71 | 1016.7 |
| 20260904133530 | 25 | 164 | 1.6 | 4.8 | 0.00 | 0.00 | 0.00 | 71 | 1016.7 |
| 20260904133024 | 25 | 180 | 3.2 | 4.8 | 0.00 | 0.00 | 0.00 | 72 | 1016.8 |
| 20260904132519 | 25 | 169 | 1.6 | 4.8 | 0.00 | 0.00 | 0.00 | 72 | 1016.7 |
| 20260904132015 | 25 | 169 | 1.6 | 4.8 | 0.00 | 0.00 | 0.00 | 72 | 1016.6 |
| 20260904131530 | 24 | 169 | 1.6 | 6.4 | 0.00 | 0.00 | 0.00 | 73 | 1016.5 |
| 20260904131026 | 24 | 169 | 3.2 | 6.4 | 0.00 | 0.00 | 0.00 | 73 | 1016.5 |
| 20260904130521 | 24 | 176 | 1.6 | 6.4 | 0.00 | 0.00 | 0.00 | 73 | 1016.4 |
| 20260904130033 | 24 | 177 | 3.2 | 6.4 | 0.00 | 0.00 | 0.00 | 73 | 1016.3 |
| 20260904125514 | 24 | 173 | 1.6 | 6.4 | 0.00 | 0.00 | 0.00 | 72 | 1016.3 |
| 20260904125029 | 25 | 169 | 3.2 | 6.4 | 0.00 | 0.00 | 0.00 | 72 | 1016.2 |
| 20260904124524 | 25 | 177 | 3.2 | 6.4 | 0.00 | 0.00 | 0.00 | 72 | 1016.1 |
| 20260904124019 | 25 | 169 | 3.2 | 8.0 | 0.00 | 0.00 | 0.00 | 72 | 1016.0 |
| 20260904123516 | 25 | 169 | 3.2 | 8.0 | 0.00 | 0.00 | 0.00 | 71 | 1015.9 |
| 20260904123030 | 25 | 129 | 4.8 | 8.0 | 0.00 | 0.00 | 0.00 | 71 | 1015.9 |
| 20260904122525 | 25 | 131 | 3.2 | 6.4 | 0.00 | 0.00 | 0.00 | 71 | 1015.9 |
| 20260904122024 | 25 | 133 | 4.8 | 9.7 | 0.00 | 0.00 | 0.00 | 71 | 1015.8 |
| 20260904121520 | 25 | 133 | 4.8 | 9.7 | 0.00 | 0.00 | 0.00 | 71 | 1015.8 |
| 20260904121016 | 25 | 139 | 3.2 | 9.7 | 0.00 | 0.00 | 0.00 | 71 | 1015.8 |
| 20260904120531 | 25 | 141 | 3.2 | 9.7 | 0.00 | 0.00 | 0.00 | 71 | 1015.8 |
| 20260904120038 | 25 | 150 | 3.2 | 8.0 | 0.00 | 0.00 | 0.00 | 71 | 1015.7 |
| 20260904115518 | 25 | 134 | 3.2 | 9.7 | 0.00 | 0.00 | 0.00 | 71 | 1015.8 |
| 20260904115013 | 25 | 135 | 3.2 | 9.7 | 0.00 | 0.00 | 0.00 | 70 | 1015.8 |
| 20260904114513 | 25 | 135 | 4.8 | 14.5 | 0.00 | 0.00 | 0.00 | 69 | 1015.8 |
| 20260904114028 | 25 | 135 | 4.8 | 14.5 | 0.00 | 0.00 | 0.00 | 69 | 1015.7 |
| 20260904113524 | 25 | 125 | 6.4 | 12.9 | 0.00 | 0.00 | 0.00 | 68 | 1015.7 |
| 20260904113019 | 26 | 140 | 6.4 | 14.5 | 0.00 | 0.00 | 0.00 | 68 | 1015.7 |
| 20260904112514 | 26 | 144 | 8.0 | 14.5 | 0.00 | 0.00 | 0.00 | 68 | 1015.6 |
| 20260904112029 | 26 | 135 | 8.0 | 14.5 | 0.00 | 0.00 | 0.00 | 67 | 1015.5 |
| 20260904111524 | 26 | 106 | 8.0 | 14.5 | 0.00 | 0.00 | 0.00 | 67 | 1015.5 |
| 20260904111023 | 26 | 99 | 6.4 | 12.9 | 0.00 | 0.00 | 0.00 | 67 | 1015.5 |
| 20260904110518 | 26 | 117 | 8.0 | 12.9 | 0.00 | 0.00 | 0.00 | 67 | 1015.5 |
| 20260904110045 | 26 | 110 | 4.8 | 14.5 | 0.00 | 0.00 | 0.00 | 67 | 1015.5 |
| 20260904105525 | 26 | 115 | 6.4 | 14.5 | 0.00 | 0.00 | 0.00 | 67 | 1015.5 |
| 20260904105020 | 26 | 131 | 4.8 | 14.5 | 0.00 | 0.00 | 0.00 | 66 | 1015.6 |
| 20260904104516 | 26 | 111 | 6.4 | 16.1 | 0.00 | 0.00 | 0.00 | 66 | 1015.5 |
| 20260904104012 | 26 | 139 | 9.7 | 16.1 | 0.00 | 0.00 | 0.00 | 66 | 1015.5 |
| 20260904103527 | 26 | 122 | 6.4 | 16.1 | 0.00 | 0.00 | 0.00 | 66 | 1015.4 |
| 20260904103027 | 26 | 129 | 8.0 | 16.1 | 0.00 | 0.00 | 0.00 | 66 | 1015.6 |
| 20260904102522 | 26 | 103 | 8.0 | 14.5 | 0.00 | 0.00 | 0.00 | 66 | 1015.5 |
| 20260904102016 | 26 | 115 | 4.8 | 9.7 | 0.00 | 0.00 | 0.00 | 66 | 1015.6 |
| 20260904101531 | 26 | 122 | 6.4 | 9.7 | 0.00 | 0.00 | 0.00 | 66 | 1015.5 |
| 20260904101025 | 26 | 129 | 6.4 | 9.7 | 0.00 | 0.00 | 0.00 | 66 | 1015.4 |
| 20260904100518 | 26 | 144 | 3.2 | 8.0 | 0.00 | 0.00 | 0.00 | 67 | 1015.4 |
| 20260904100044 | 26 | 150 | 3.2 | 8.0 | 0.00 | 0.00 | 0.00 | 67 | 1015.4 |
| 20260904095528 | 26 | 154 | 1.6 | 9.7 | 0.00 | 0.00 | 0.00 | 68 | 1015.4 |
| 20260904095022 | 26 | 144 | 4.8 | 9.7 | 0.00 | 0.00 | 0.00 | 68 | 1015.3 |
| 20260904094516 | 26 | 153 | 3.2 | 8.0 | 0.00 | 0.00 | 0.00 | 68 | 1015.4 |
| 20260904094030 | 26 | 129 | 1.6 | 4.8 | 0.00 | 0.00 | 0.00 | 68 | 1015.3 |
| 20260904093524 | 26 | 130 | 1.6 | 4.8 | 0.00 | 0.00 | 0.00 | 68 | 1015.3 |
| 20260904093017 | 26 | 130 | 3.2 | 6.4 | 0.00 | 0.00 | 0.00 | 67 | 1015.2 |
| 20260904092531 | 26 | 130 | 3.2 | 8.0 | 0.00 | 0.00 | 0.00 | 67 | 1015.2 |
| 20260904092025 | 26 | 131 | 4.8 | 8.0 | 0.00 | 0.00 | 0.00 | 67 | 1015.3 |
| 20260904091524 | 26 | 134 | 4.8 | 8.0 | 0.00 | 0.00 | 0.00 | 67 | 1015.3 |
| 20260904091019 | 26 | 136 | 3.2 | 9.7 | 0.00 | 0.00 | 0.00 | 67 | 1015.2 |
| 20260904090513 | 26 | 137 | 4.8 | 9.7 | 0.00 | 0.00 | 0.00 | 67 | 1015.2 |
| 20260904090040 | 26 | 137 | 4.8 | 9.7 | 0.00 | 0.00 | 0.00 | 67 | 1015.3 |
| 20260904085520 | 26 | 129 | 4.8 | 9.7 | 0.00 | 0.00 | 0.00 | 67 | 1015.2 |
| 20260904085015 | 26 | 121 | 4.8 | 8.0 | 0.00 | 0.00 | 0.00 | 66 | 1015.2 |
| 20260904084530 | 26 | 117 | 4.8 | 8.0 | 0.00 | 0.00 | 0.00 | 66 | 1015.3 |
| 20260904084029 | 26 | 115 | 4.8 | 9.7 | 0.00 | 0.00 | 0.00 | 66 | 1015.2 |
| 20260904083524 | 26 | 110 | 4.8 | 12.9 | 0.00 | 0.00 | 0.00 | 66 | 1015.3 |
| 20260904083019 | 26 | 106 | 6.4 | 12.9 | 0.00 | 0.00 | 0.00 | 66 | 1015.2 |
| 20260904082513 | 26 | 113 | 6.4 | 9.7 | 0.00 | 0.00 | 0.00 | 66 | 1015.3 |
| 20260904082028 | 26 | 125 | 4.8 | 9.7 | 0.00 | 0.00 | 0.00 | 66 | 1015.4 |
| 20260904081523 | 26 | 123 | 3.2 | 9.7 | 0.00 | 0.00 | 0.00 | 66 | 1015.4 |
| 20260904081018 | 26 | 123 | 4.8 | 9.7 | 0.00 | 0.00 | 0.00 | 66 | 1015.4 |
| 20260904080517 | 26 | 110 | 1.6 | 4.8 | 0.00 | 0.00 | 0.00 | 66 | 1015.4 |
| 20260904080045 | 26 | 110 | 1.6 | 6.4 | 0.00 | 0.00 | 0.00 | 66 | 1015.4 |
| 20260904075525 | 26 | 110 | 3.2 | 6.4 | 0.00 | 0.00 | 0.00 | 66 | 1015.4 |
| 20260904075019 | 26 | 110 | 4.8 | 8.0 | 0.00 | 0.00 | 0.00 | 65 | 1015.4 |
| 20260904074513 | 26 | 110 | 4.8 | 8.0 | 0.00 | 0.00 | 0.00 | 65 | 1015.4 |
| 20260904074027 | 26 | 110 | 4.8 | 8.0 | 0.00 | 0.00 | 0.00 | 65 | 1015.4 |
| 20260904073521 | 26 | 110 | 3.2 | 9.7 | 0.00 | 0.00 | 0.00 | 65 | 1015.5 |
| 20260904073015 | 26 | 137 | 4.8 | 8.0 | 0.00 | 0.00 | 0.00 | 64 | 1015.5 |
| 20260904072514 | 27 | 138 | 4.8 | 12.9 | 0.00 | 0.00 | 0.00 | 64 | 1015.5 |
| 20260904072028 | 27 | 140 | 4.8 | 12.9 | 0.00 | 0.00 | 0.00 | 64 | 1015.6 |
| 20260904071522 | 27 | 100 | 4.8 | 8.0 | 0.00 | 0.00 | 0.00 | 64 | 1015.7 |
| 20260904071016 | 27 | 98 | 4.8 | 8.0 | 0.00 | 0.00 | 0.00 | 63 | 1015.7 |
| 20260904070511 | 27 | 97 | 4.8 | 11.3 | 0.00 | 0.00 | 0.00 | 63 | 1015.8 |
| 20260904070038 | 27 | 96 | 4.8 | 11.3 | 0.00 | 0.00 | 0.00 | 63 | 1015.8 |
| 20260904065519 | 27 | 90 | 6.4 | 11.3 | 0.00 | 0.00 | 0.00 | 63 | 1015.8 |
| 20260904065017 | 27 | 92 | 3.2 | 14.5 | 0.00 | 0.00 | 0.00 | 63 | 1015.6 |
| 20260904064511 | 27 | 93 | 4.8 | 14.5 | 0.00 | 0.00 | 0.00 | 63 | 1015.8 |
| 20260904064026 | 27 | 98 | 6.4 | 11.3 | 0.00 | 0.00 | 0.00 | 63 | 1015.7 |
| 20260904063520 | 27 | 113 | 4.8 | 8.0 | 0.00 | 0.00 | 0.00 | 62 | 1015.6 |
| 20260904063015 | 27 | 115 | 4.8 | 6.4 | 0.00 | 0.00 | 0.00 | 61 | 1015.7 |
| 20260904062530 | 27 | 116 | 4.8 | 9.7 | 0.00 | 0.00 | 0.00 | 61 | 1015.7 |
| 20260904062025 | 27 | 117 | 4.8 | 8.0 | 0.00 | 0.00 | 0.00 | 61 | 1015.6 |
| 20260904061519 | 27 | 118 | 4.8 | 8.0 | 0.00 | 0.00 | 0.00 | 61 | 1015.6 |
| 20260904061018 | 27 | 120 | 4.8 | 6.4 | 0.00 | 0.00 | 0.00 | 60 | 1015.7 |
| 20260904060512 | 27 | 120 | 3.2 | 8.0 | 0.00 | 0.00 | 0.00 | 60 | 1015.5 |
| 20260904060038 | 27 | 120 | 4.8 | 8.0 | 0.00 | 0.00 | 0.00 | 60 | 1015.5 |
| 20260904055518 | 27 | 121 | 4.8 | 9.7 | 0.00 | 0.00 | 0.00 | 60 | 1015.5 |
| 20260904055012 | 27 | 121 | 4.8 | 9.7 | 0.00 | 0.00 | 0.00 | 60 | 1015.5 |
| 20260904054526 | 27 | 129 | 4.8 | 9.7 | 0.00 | 0.00 | 0.00 | 59 | 1015.4 |
| 20260904054019 | 27 | 137 | 3.2 | 9.7 | 0.00 | 0.00 | 0.00 | 59 | 1015.5 |
| 20260904053517 | 27 | 150 | 4.8 | 9.7 | 0.00 | 0.00 | 0.00 | 59 | 1015.4 |
| 20260904053012 | 27 | 154 | 4.8 | 12.9 | 0.00 | 0.00 | 0.00 | 58 | 1015.4 |
| 20260904052526 | 28 | 128 | 8.0 | 14.5 | 0.00 | 0.00 | 0.00 | 58 | 1015.4 |
| 20260904052020 | 28 | 122 | 6.4 | 14.5 | 0.00 | 0.00 | 0.00 | 57 | 1015.4 |
| 20260904051514 | 28 | 115 | 8.0 | 14.5 | 0.00 | 0.00 | 0.00 | 57 | 1015.3 |
| 20260904051029 | 28 | 124 | 8.0 | 14.5 | 0.00 | 0.00 | 0.00 | 57 | 1015.3 |
| 20260904050524 | 28 | 121 | 8.0 | 12.9 | 0.00 | 0.00 | 0.00 | 57 | 1015.4 |
| 20260904050032 | 28 | 119 | 8.0 | 14.5 | 0.00 | 0.00 | 0.00 | 56 | 1015.4 |
| 20260904045516 | 28 | 90 | 6.4 | 14.5 | 0.00 | 0.00 | 0.00 | 56 | 1015.5 |
| 20260904045030 | 28 | 101 | 4.8 | 11.3 | 0.00 | 0.00 | 0.00 | 56 | 1015.5 |
| 20260904044524 | 28 | 80 | 4.8 | 16.1 | 0.00 | 0.00 | 0.00 | 57 | 1015.5 |
| 20260904044018 | 28 | 133 | 11.3 | 16.1 | 0.00 | 0.00 | 0.00 | 56 | 1015.6 |
| 20260904043513 | 28 | 95 | 4.8 | 14.5 | 0.00 | 0.00 | 0.00 | 57 | 1015.8 |
| 20260904043019 | 28 | 116 | 8.0 | 14.5 | 0.00 | 0.00 | 0.00 | 56 | 1015.5 |
| 20260904042513 | 28 | 96 | 8.0 | 14.5 | 0.00 | 0.00 | 0.00 | 56 | 1015.5 |
| 20260904042012 | 28 | 103 | 8.0 | 12.9 | 0.00 | 0.00 | 0.00 | 56 | 1015.6 |
| 20260904041526 | 28 | 98 | 6.4 | 12.9 | 0.00 | 0.00 | 0.00 | 56 | 1015.6 |
| 20260904041020 | 28 | 97 | 8.0 | 14.5 | 0.00 | 0.00 | 0.00 | 57 | 1015.6 |
| 20260904040515 | 28 | 90 | 6.4 | 12.9 | 0.00 | 0.00 | 0.00 | 58 | 1015.4 |
| 20260904040040 | 28 | 86 | 6.4 | 16.1 | 0.00 | 0.00 | 0.00 | 58 | 1015.5 |
| 20260904035524 | 28 | 108 | 9.7 | 16.1 | 0.00 | 0.00 | 0.00 | 58 | 1015.4 |
| 20260904035018 | 28 | 105 | 6.4 | 16.1 | 0.00 | 0.00 | 0.00 | 58 | 1015.3 |
| 20260904034513 | 28 | 113 | 8.0 | 14.5 | 0.00 | 0.00 | 0.00 | 58 | 1015.3 |
| 20260904034012 | 28 | 113 | 8.0 | 14.5 | 0.00 | 0.00 | 0.00 | 58 | 1015.2 |
| 20260904033527 | 28 | 91 | 4.8 | 14.5 | 0.00 | 0.00 | 0.00 | 57 | 1015.1 |
| 20260904033024 | 28 | 83 | 8.0 | 14.5 | 0.00 | 0.00 | 0.00 | 57 | 1015.1 |
| 20260904032019 | 28 | 82 | 6.4 | 11.3 | 0.00 | 0.00 | 0.00 | 56 | 1015.0 |
| 20260904031515 | 28 | 92 | 6.4 | 11.3 | 0.00 | 0.00 | 0.00 | 56 | 1014.8 |
| 20260904031031 | 29 | 129 | 3.2 | 9.7 | 0.00 | 0.00 | 0.00 | 56 | 1014.6 |
| 20260904030527 | 29 | 134 | 1.6 | 12.9 | 0.00 | 0.00 | 0.00 | 56 | 1014.5 |
| 20260904030040 | 29 | 111 | 4.8 | 12.9 | 0.00 | 0.00 | 0.00 | 57 | 1014.5 |
| 20260904025521 | 29 | 116 | 8.0 | 14.5 | 0.00 | 0.00 | 0.00 | 57 | 1014.5 |
| 20260904025017 | 29 | 175 | 6.4 | 14.5 | 0.00 | 0.00 | 0.00 | 56 | 1014.6 |
| 20260904024533 | 29 | 140 | 4.8 | 12.9 | 0.00 | 0.00 | 0.00 | 57 | 1014.4 |
| 20260904024029 | 29 | 188 | 6.4 | 17.7 | 0.00 | 0.00 | 0.00 | 56 | 1014.3 |
| 20260904023525 | 29 | 107 | 8.0 | 16.1 | 0.00 | 0.00 | 0.00 | 56 | 1014.2 |
| 20260904023021 | 29 | 140 | 6.4 | 14.5 | 0.00 | 0.00 | 0.00 | 55 | 1014.1 |
| 20260904022522 | 29 | 110 | 8.0 | 14.5 | 0.00 | 0.00 | 0.00 | 55 | 1014.1 |
| 20260904022018 | 29 | 117 | 9.7 | 14.5 | 0.00 | 0.00 | 0.00 | 54 | 1014.2 |
| 20260904021514 | 29 | 128 | 6.4 | 12.9 | 0.00 | 0.00 | 0.00 | 54 | 1014.1 |
| 20260904021031 | 30 | 130 | 6.4 | 12.9 | 0.00 | 0.00 | 0.00 | 54 | 1014.0 |
| 20260904020526 | 30 | 119 | 8.0 | 14.5 | 0.00 | 0.00 | 0.00 | 53 | 1014.0 |
| 20260904020033 | 30 | 151 | 4.8 | 14.5 | 0.00 | 0.00 | 0.00 | 53 | 1014.0 |
| 20260904015515 | 30 | 138 | 6.4 | 14.5 | 0.00 | 0.00 | 0.00 | 53 | 1013.9 |
| 20260904015015 | 30 | 142 | 6.4 | 14.5 | 0.00 | 0.00 | 0.00 | 52 | 1013.8 |
| 20260904014531 | 30 | 201 | 6.4 | 17.7 | 0.00 | 0.00 | 0.00 | 50 | 1013.6 |
| 20260904014027 | 30 | 133 | 6.4 | 14.5 | 0.00 | 0.00 | 0.00 | 50 | 1013.5 |
| 20260904013523 | 30 | 149 | 6.4 | 20.9 | 0.00 | 0.00 | 0.00 | 51 | 1013.6 |
| 20260904013019 | 30 | 181 | 8.0 | 25.7 | 0.00 | 0.00 | 0.00 | 51 | 1013.5 |
| 20260904012515 | 30 | 123 | 14.5 | 25.7 | 0.00 | 0.00 | 0.00 | 50 | 1013.6 |
| 20260904012031 | 31 | 141 | 9.7 | 20.9 | 0.00 | 0.00 | 0.00 | 46 | 1013.6 |
| 20260904011531 | 31 | 190 | 8.0 | 16.1 | 0.00 | 0.00 | 0.00 | 46 | 1013.4 |
| 20260904011027 | 31 | 159 | 4.8 | 16.1 | 0.00 | 0.00 | 0.00 | 46 | 1013.3 |
| 20260904010523 | 31 | 148 | 6.4 | 14.5 | 0.00 | 0.00 | 0.00 | 46 | 1013.2 |
| 20260904010030 | 31 | 174 | 6.4 | 14.5 | 0.00 | 0.00 | 0.00 | 45 | 1013.3 |
| 20260904005532 | 31 | 217 | 4.8 | 11.3 | 0.00 | 0.00 | 0.00 | 46 | 1013.3 |
| 20260904005028 | 31 | 235 | 6.4 | 11.3 | 0.00 | 0.00 | 0.00 | 46 | 1013.4 |
| 20260904004524 | 31 | 155 | 6.4 | 14.5 | 0.00 | 0.00 | 0.00 | 46 | 1013.4 |
| 20260904004024 | 31 | 135 | 8.0 | 17.7 | 0.00 | 0.00 | 0.00 | 47 | 1013.5 |
| 20260904003520 | 32 | 138 | 4.8 | 17.7 | 0.00 | 0.00 | 0.00 | 47 | 1013.4 |
| 20260904003016 | 32 | 196 | 6.4 | 16.1 | 0.00 | 0.00 | 0.00 | 47 | 1013.5 |
| 20260904002531 | 32 | 204 | 6.4 | 22.5 | 0.00 | 0.00 | 0.00 | 46 | 1013.4 |
| 20260904002027 | 32 | 215 | 11.3 | 22.5 | 0.00 | 0.00 | 0.00 | 46 | 1013.3 |
| 20260904001523 | 32 | 185 | 8.0 | 17.7 | 0.00 | 0.00 | 0.00 | 45 | 1013.2 |
| 20260904001019 | 32 | 135 | 6.4 | 17.7 | 0.00 | 0.00 | 0.00 | 44 | 1013.2 |
| 20260904000519 | 32 | 134 | 9.7 | 17.7 | 0.00 | 0.00 | 0.00 | 42 | 1013.2 |
| 20260904000028 | 33 | 110 | 6.4 | 17.7 | 0.00 | 0.00 | 0.00 | 43 | 1013.2 |
| 20260903235529 | 33 | 112 | 6.4 | 14.5 | 0.00 | 0.00 | 0.00 | 44 | 1013.3 |
| 20260903235025 | 32 | 225 | 8.0 | 14.5 | 0.00 | 0.00 | 0.00 | 46 | 1013.2 |
| 20260903234521 | 32 | 85 | 8.0 | 17.7 | 0.00 | 0.00 | 0.00 | 47 | 1013.4 |
| 20260903234017 | 32 | 60 | 9.7 | 17.7 | 0.00 | 0.00 | 0.00 | 48 | 1013.4 |
| 20260903233513 | 32 | 48 | 9.7 | 16.1 | 0.00 | 0.00 | 0.00 | 46 | 1013.4 |
| 20260903233013 | 32 | 49 | 8.0 | 16.1 | 0.00 | 0.00 | 0.00 | 46 | 1013.5 |
| 20260903232529 | 32 | 85 | 4.8 | 19.3 | 0.00 | 0.00 | 0.00 | 45 | 1013.5 |
| 20260903232025 | 32 | 120 | 12.9 | 16.1 | 0.00 | 0.00 | 0.00 | 45 | 1013.5 |
| 20260903231521 | 32 | 121 | 11.3 | 16.1 | 0.00 | 0.00 | 0.00 | 45 | 1013.6 |
| 20260903231017 | 32 | 137 | 8.0 | 14.5 | 0.00 | 0.00 | 0.00 | 46 | 1013.5 |
| 20260903230513 | 32 | 54 | 6.4 | 14.5 | 0.00 | 0.00 | 0.00 | 47 | 1013.6 |
| 20260903230040 | 32 | 69 | 3.2 | 11.3 | 0.00 | 0.00 | 0.00 | 44 | 1013.4 |
| 20260903225523 | 32 | 66 | 6.4 | 11.3 | 0.00 | 0.00 | 0.00 | 44 | 1013.5 |
| 20260903225023 | 33 | 67 | 6.4 | 14.5 | 0.00 | 0.00 | 0.00 | 43 | 1013.5 |
| 20260903224519 | 33 | 85 | 8.0 | 14.5 | 0.00 | 0.00 | 0.00 | 43 | 1013.4 |
| 20260903224015 | 33 | 29 | 4.8 | 9.7 | 0.00 | 0.00 | 0.00 | 43 | 1013.5 |
| 20260903223531 | 33 | 29 | 4.8 | 9.7 | 0.00 | 0.00 | 0.00 | 42 | 1013.6 |
| 20260903223027 | 32 | 323 | 3.2 | 9.7 | 0.00 | 0.00 | 0.00 | 45 | 1013.5 |
| 20260903222523 | 32 | 316 | 4.8 | 9.7 | 0.00 | 0.00 | 0.00 | 43 | 1013.6 |
| 20260903222019 | 32 | 291 | 1.6 | 6.4 | 0.00 | 0.00 | 0.00 | 44 | 1013.5 |
| 20260903221518 | 33 | 290 | 3.2 | 11.3 | 0.00 | 0.00 | 0.00 | 43 | 1013.8 |
| 20260903221033 | 33 | 24 | 3.2 | 8.0 | 0.00 | 0.00 | 0.00 | 44 | 1013.8 |
| 20260903220528 | 33 | 27 | 3.2 | 8.0 | 0.00 | 0.00 | 0.00 | 44 | 1013.9 |
| 20260903220037 | 33 | 31 | 1.6 | 8.0 | 0.00 | 0.00 | 0.00 | 43 | 1014.0 |
| 20260903215518 | 33 | 31 | 1.6 | 8.0 | 0.00 | 0.00 | 0.00 | 43 | 1013.9 |
| 20260903215014 | 33 | 33 | 3.2 | 8.0 | 0.00 | 0.00 | 0.00 | 44 | 1013.9 |
| 20260903214530 | 33 | 33 | 3.2 | 11.3 | 0.00 | 0.00 | 0.00 | 43 | 1014.1 |
| 20260903214030 | 33 | 296 | 4.8 | 12.9 | 0.00 | 0.00 | 0.00 | 43 | 1014.1 |
| 20260903213525 | 33 | 296 | 4.8 | 12.9 | 0.00 | 0.00 | 0.00 | 42 | 1014.2 |
| 20260903213021 | 33 | 312 | 4.8 | 11.3 | 0.00 | 0.00 | 0.00 | 43 | 1014.1 |
| 20260903212517 | 33 | 5 | 3.2 | 11.3 | 0.00 | 0.00 | 0.00 | 44 | 1014.0 |
| 20260903212013 | 33 | 5 | 1.6 | 9.7 | 0.00 | 0.00 | 0.00 | 43 | 1014.2 |
| 20260903211529 | 33 | 356 | 4.8 | 9.7 | 0.00 | 0.00 | 0.00 | 44 | 1014.1 |
| 20260903211026 | 32 | 330 | 4.8 | 12.9 | 0.00 | 0.00 | 0.00 | 45 | 1014.3 |
| 20260903210526 | 33 | 269 | 3.2 | 12.9 | 0.00 | 0.00 | 0.00 | 43 | 1014.2 |
| 20260903210033 | 34 | 288 | 3.2 | 12.9 | 0.00 | 0.00 | 0.00 | 42 | 1014.2 |
| 20260903205515 | 33 | 330 | 1.6 | 4.8 | 0.00 | 0.00 | 0.00 | 43 | 1014.4 |
| 20260903205029 | 32 | 330 | 3.2 | 8.0 | 0.00 | 0.00 | 0.00 | 44 | 1014.5 |
| 20260903204525 | 32 | 329 | 1.6 | 9.7 | 0.00 | 0.00 | 0.00 | 45 | 1014.8 |
| 20260903204021 | 33 | 329 | 1.6 | 9.7 | 0.00 | 0.00 | 0.00 | 43 | 1014.8 |
| 20260903203517 | 33 | 329 | 3.2 | 8.0 | 0.00 | 0.00 | 0.00 | 44 | 1014.7 |
| 20260903203017 | 33 | 329 | 4.8 | 8.0 | 0.00 | 0.00 | 0.00 | 43 | 1014.9 |
| 20260903202513 | 32 | 325 | 4.8 | 8.0 | 0.00 | 0.00 | 0.00 | 43 | 1014.9 |
| 20260903202029 | 32 | 312 | 4.8 | 8.0 | 0.00 | 0.00 | 0.00 | 44 | 1015.0 |
| 20260903201525 | 33 | 259 | 3.2 | 6.4 | 0.00 | 0.00 | 0.00 | 43 | 1015.2 |
| 20260903201021 | 32 | 257 | 1.6 | 6.4 | 0.00 | 0.00 | 0.00 | 44 | 1015.2 |
| 20260903200517 | 32 | 224 | 3.2 | 8.0 | 0.00 | 0.00 | 0.00 | 46 | 1015.3 |
| 20260903200045 | 32 | 224 | 3.2 | 8.0 | 0.00 | 0.00 | 0.00 | 45 | 1015.4 |